Other Public Products
Issued by NWS Charleston, SC

Current Version | Previous Version | Graphics & Text | Print | Product List | Glossary On
Versions: 1 2 3 4 5 6 7 8 9 10 11 12 13 14 15 16 17 18 19 20 21 22 23 24 25 26 27 28 29 30 31 32 33 34 35 36 37 38 39 40 41 42 43 44 45 46 47 48 49 50
451 FPUS82 KCHS 202312 OPUCHS TEST...KCHS/KSAV Gateway Observations...TEST National Weather Service Charleston SC 700 PM EDT FRI OCT 20 2017 NOTE: "fair" indicates few or no clouds below 12,000 feet with no significant weather and/or obstructions to visibility. SCZ050-WAZ558-NCZ071-TXZ119-213-PAZ071-DCZ001-FLZ074-172-MI076- NYZ176-178-MAZ016-IL014-TNZ027-NJZ106-GAZ044-MD014-210000- ...Gateway Observations for Charleston International... CITY SKY/WX TMP DP RH WIND PRES REMARKS Chas Airport CLEAR 69 60 73 SE6 30.19R Seattle PTSUNNY 51 45 79 S16G25 29.80S Charlotte PTCLDY 65 51 60 CALM 30.21R Dallas DFW MOCLDY 82 65 56 SE17G24 29.87F Dallas Love MOCLDY 82 64 54 SE22 29.88F Philladelphia PTCLDY 70 36 28 W9 30.18R Wash National PTCLDY 71 46 40 NW6 30.21R Baltimore PTCLDY 65 45 48 NW3 30.20R Miami MOCLDY 83 74 74 NE15G28 29.99R Detroit CLOUDY 65 45 48 S5 30.17S Newark PTCLDY 70 35 27 W9 30.14R Laguardia PTCLDY 71 39 31 NW9 30.13R J F K PTCLDY 70 36 28 NW9 30.14R Boston Logan PTCLDY 66 34 30 W9 30.05R Ft. Lauderdale CLOUDY 81 74 79 NE20G29 29.98S Chicago O`Hare CLOUDY 72 50 45 S12 30.04S Chicago Midway MOCLDY 75 49 39 S9 30.06S Houston Bush LGT RAIN 73 73 100 E13 29.96S FOG Houston Hobby LGT RAIN 78 72 81 E10G21 29.95S Nashville CLOUDY 70 46 42 CALM 30.17S Atlanta MOCLDY 73 38 27 SE3 30.19R $$ GAZ044-118-TXZ119-213-NCZ071-DCZ001-MDZ014-506-PAZ021-071-NJZ106- NYZ176-178-MAZ106-OHZ011-021-055-MIZ076-KYZ091-ILZ014-INZ047- MNZ060-ONZ431-210000- ...Gateway Observations for Savannah International... CITY SKY/WX TMP DP RH WIND PRES REMARKS Savannah Arpt PTCLDY 72 62 71 E6 30.18S Atlanta MOCLDY 73 38 27 SE3 30.19R Charlotte PTCLDY 65 51 60 CALM 30.21R Dallas DFW MOCLDY 82 65 56 SE17G24 29.87F Houston Bush LGT RAIN 73 73 100 E13 29.96S FOG Wash National PTCLDY 71 46 40 NW6 30.21R Wash Dulles PTCLDY 64 45 49 NE3 30.21R Baltimore PTCLDY 65 45 48 NW3 30.20R Philadelphia PTCLDY 70 36 28 W9 30.18R Newark PTCLDY 70 35 27 W9 30.14R Laguardia PTCLDY 71 39 31 NW9 30.13R J F K PTCLDY 70 36 28 NW9 30.14R Boston PTCLDY 66 34 30 W9 30.05R Pittsburg PTCLDY 66 38 35 CALM 30.23S Akron PTCLDY 64 41 42 S6 30.22S Cleveland PTCLDY 65 40 39 S6 30.21S Cincinnati MOCLDY 67 54 63 S5 30.19S Columbus CLEAR 65 45 48 SE3 30.21R Detroit CLOUDY 65 45 48 S5 30.17S Chicago O`Hare CLOUDY 72 50 45 S12 30.04S Minneapolis MOCLDY 75 45 34 S20G26 29.73S Indianapolis MOCLDY 67 48 50 S7 30.16R Toronto Canada PTCLDY 64 39 39 S7 30.15S $$

USA.gov is the U.S. government's official web portal to all federal, state and local government web resources and services.